Location: Caltech
(34.1382°N, 118.1253°W)
Time: 01:54:01
(UTC-07:00)

JAS-2 - Visible Passes

Search period start: 07 July 2015 00:00
Search period end: 17 July 2015 00:00
Orbit: 800 x 1322 km, 98.5° (Epoch: 05 July)

Date Brightness Start Highest point End Pass type
(mag) Time Alt. Az. Time Alt. Az. Time Alt. Az.
07 Jul 11.6 03:13:34 10° NE 03:19:06 25° E 03:25:15 10° SSE visible
07 Jul 10.2 04:57:38 10° N 05:04:20 55° WNW 05:11:40 10° SSW visible
08 Jul 10.4 04:02:32 10° NNE 04:09:27 62° E 04:17:04 10° S visible
09 Jul 11.7 03:08:45 10° NE 03:14:12 24° E 03:20:15 10° SE visible
09 Jul 10.1 04:52:38 10° N 04:59:30 59° WNW 05:06:58 10° SSW visible
10 Jul 10.5 03:57:36 10° NNE 04:04:36 58° E 04:12:13 10° S visible
11 Jul 11.8 03:03:58 10° NE 03:09:18 23° E 03:15:13 10° SE visible
11 Jul 10.1 04:47:38 10° N 04:54:40 63° WNW 05:02:16 10° SSW visible
12 Jul 10.6 03:52:42 10° NNE 03:59:45 55° E 04:07:22 10° S visible
13 Jul 11.9 02:59:12 10° NE 03:04:24 21° E 03:10:10 10° SE visible
13 Jul 10.1 04:42:39 10° N 04:49:50 67° WNW 04:57:32 10° SSW visible
14 Jul 10.7 03:47:48 10° NNE 03:54:54 52° E 04:02:30 10° S visible
15 Jul 12.0 02:54:30 10° NE 02:59:30 20° E 03:05:04 10° SE visible
15 Jul 10.1 04:37:42 10° N 04:45:01 72° WNW 04:52:48 10° SSW visible
16 Jul 10.8 03:42:56 10° NNE 03:50:04 49° E 03:57:37 10° S visible
